Weather History for Torrington, WY

Change the Weather History Date:

Thursday, November 8, 2012

  Actual Average Record
Temperature  
Mean Temperature 45 °F 39 °F  
Max Temperature 56 °F 54 °F 79 °F (1999)
Min Temperature 34 °F 25 °F 9 °F (2000)
Degree Days  
Heating Degree Days 20 26  
Month to date heating degree days 140 193  
Since 1 July heating degree days 766 903  
Cooling Degree Days 0 0  
Month to date cooling degree days 0 0  
Year to date cooling degree days 1021 678  
Moisture  
Dew Point 29 °F    
Average Humidity 60    
Maximum Humidity 82    
Minimum Humidity 38    
Precipitation  
Precipitation 0.00 in 0.02 in 0.00 in (2014)
Month to date precipitation 0.00 0.17  
Year to date precipitation 6.91 13.57  
Sea Level Pressure  
Sea Level Pressure 29.88 in    
Wind  
Wind Speed 9 mph (East)    
Max Wind Speed 16 mph    
Max Gust Speed 23 mph    
Visibility 10 miles    
Events      
T = Trace of Precipitation, MM = Missing Value Source: NWS Daily Summary

Daily Weather History Graph

Daily Weather History Graph

Search for Another Location

Airport:

Trip Planner

Search our weather history database for the weather conditions in past years. The results will help you decide how hot, cold, wet, or windy it might be!

Date:

Astronomy

Nov. 08, 2012 Rise Set
Actual Time 6:38 AM MST 4:41 PM MST
Civil Twilight 6:09 AM MST 5:11 PM MST
Nautical Twilight 5:35 AM MST 5:44 PM MST
Astronomical Twilight 5:02 AM MST 6:17 PM MST
Moon 12:30 AM MST (11/8) 1:29 PM MST (11/8)
Length of Visible Light 11h 02m
Length of Day
10h 02m
Waning Crescent, 32% of the Moon is Illuminated
Nov 8
Waning Crescent
Nov 13
New
Nov 20
First Quarter
Nov 28
Full
Dec 6
Last Quarter

Hourly Weather History & Observations

Time (MST) Temp. Windchill Dew Point Humidity Pressure Visibility Wind Dir Wind Speed Gust Speed Precip Events Conditions
12:53 AM 37.0 °F 31.6 °F 21.0 °F 52% 29.79 in 10.0 mi East 6.9 mph - N/A   Clear
1:53 AM 34.0 °F 26.6 °F 21.0 °F 59% 29.80 in 10.0 mi ENE 9.2 mph - N/A   Clear
2:53 AM 37.0 °F - 23.0 °F 57% 29.81 in 10.0 mi Calm Calm - N/A   Clear
3:53 AM 41.0 °F 34.3 °F 21.9 °F 47% 29.84 in 10.0 mi North 11.5 mph - N/A   Clear
4:53 AM 41.0 °F 35.8 °F 30.9 °F 67% 29.90 in 10.0 mi NNW 8.1 mph - N/A   Clear
6:53 AM 37.0 °F 33.3 °F 28.9 °F 73% 29.99 in 10.0 mi NNW 4.6 mph - N/A   Clear
7:53 AM 39.0 °F - 30.0 °F 70% 30.03 in 10.0 mi Calm Calm - N/A   Clear
8:53 AM 45.0 °F 42.6 °F 30.0 °F 56% 30.01 in 10.0 mi NNE 4.6 mph - N/A   Clear
9:53 AM 46.9 °F - 30.0 °F 52% 30.00 in 10.0 mi Variable 4.6 mph - N/A   Clear
10:53 AM 51.1 °F - 30.9 °F 46% 29.98 in 10.0 mi East 9.2 mph - N/A   Clear
11:53 AM 53.1 °F - 30.0 °F 41% 29.94 in 10.0 mi SE 10.4 mph - N/A   Clear
12:53 PM 55.0 °F - 30.9 °F 40% 29.89 in 10.0 mi SE 13.8 mph - N/A   Clear
1:53 PM 55.0 °F - 32.0 °F 42% 29.87 in 10.0 mi ESE 13.8 mph 23.0 mph N/A   Clear
2:53 PM 55.0 °F - 32.0 °F 42% 29.85 in 10.0 mi SE 11.5 mph - N/A   Clear
3:53 PM 53.1 °F - 32.0 °F 45% 29.83 in 10.0 mi SE 9.2 mph 18.4 mph N/A   Clear
4:53 PM 48.0 °F - 30.9 °F 52% 29.84 in 10.0 mi ESE 10.4 mph - N/A   Clear
5:53 PM 46.0 °F 41.0 °F 32.0 °F 58% 29.86 in 10.0 mi East 10.4 mph - N/A   Clear
6:53 PM 39.9 °F 32.5 °F 30.0 °F 68% 29.88 in 10.0 mi East 12.7 mph - N/A   Clear
7:53 PM 42.1 °F 34.9 °F 30.9 °F 65% 29.86 in 10.0 mi ESE 13.8 mph - N/A   Clear
8:53 PM 39.0 °F 31.4 °F 30.9 °F 73% 29.85 in 10.0 mi East 12.7 mph - N/A   Clear
9:53 PM 37.0 °F 28.9 °F 30.9 °F 79% 29.83 in 10.0 mi ESE 12.7 mph - N/A   Clear
10:53 PM 37.0 °F 29.3 °F 32.0 °F 82% 29.81 in 10.0 mi ESE 11.5 mph - N/A   Clear
11:53 PM 36.0 °F 29.0 °F 32.0 °F 86% 29.79 in 10.0 mi ESE 9.2 mph - N/A   Clear